Time,TemperatureF,DewpointF,PressureIn,WindDirection,WindDirectionDegrees,WindSpeedMPH,WindSpeedGustMPH,Humidity,HourlyPrecipIn,Conditions,Clouds,dailyrainin,SoftwareType,DateUTC
2013-06-17 00:02:00,66.7,65.8,29.86,SSE,147,2.0,2.0,97,0.00,,,0.06,meteohub,2013-06-17 04:02:00,
2013-06-17 00:07:00,66.6,65.7,29.86,SSE,147,0.0,3.0,97,0.00,,,0.00,meteohub,2013-06-17 04:07:00,
2013-06-17 00:12:00,66.6,65.7,29.85,SSE,148,0.0,3.0,97,0.00,,,0.00,meteohub,2013-06-17 04:12:00,
2013-06-17 00:17:00,66.7,65.8,29.86,SSE,149,0.0,3.0,97,0.00,,,0.00,meteohub,2013-06-17 04:17:00,
2013-06-17 00:22:00,66.7,65.8,29.86,SSE,149,0.0,1.0,97,0.00,,,0.00,meteohub,2013-06-17 04:22:00,
2013-06-17 00:27:00,66.7,65.8,29.86,SSE,149,0.0,1.0,97,0.00,,,0.00,meteohub,2013-06-17 04:27:00,
2013-06-17 00:32:00,66.7,65.8,29.86,SSE,150,0.0,0.0,97,0.00,,,0.00,meteohub,2013-06-17 04:32:00,
2013-06-17 00:37:00,66.7,65.8,29.86,SSE,155,1.0,1.0,97,0.00,,,0.00,meteohub,2013-06-17 04:37:00,
2013-06-17 00:42:00,66.7,65.8,29.86,SSE,155,0.0,1.0,97,0.00,,,0.00,meteohub,2013-06-17 04:42:00,
2013-06-17 00:47:00,66.7,65.8,29.86,SSE,155,0.0,1.0,97,0.00,,,0.00,meteohub,2013-06-17 04:47:00,
2013-06-17 00:52:00,66.7,65.8,29.87,SSE,155,0.0,1.0,97,0.00,,,0.00,meteohub,2013-06-17 04:52:00,
2013-06-17 00:57:00,66.9,66.0,29.87,SSE,155,0.0,0.0,97,0.00,,,0.00,meteohub,2013-06-17 04:57:00,
2013-06-17 01:02:00,66.9,66.0,29.87,SSE,155,0.0,0.0,97,0.00,,,0.00,meteohub,2013-06-17 05:02:00,
2013-06-17 01:07:00,66.7,65.8,29.87,SSE,155,0.0,0.0,97,0.00,,,0.00,meteohub,2013-06-17 05:07:00,
2013-06-17 01:12:00,66.7,65.8,29.86,SSE,155,0.0,0.0,97,0.00,,,0.00,meteohub,2013-06-17 05:12:00,
2013-06-17 01:17:00,66.7,65.8,29.86,SSE,155,0.0,0.0,97,0.00,,,0.00,meteohub,2013-06-17 05:17:00,
2013-06-17 01:22:00,66.7,66.2,29.86,SSE,147,0.0,0.0,98,0.00,,,0.00,meteohub,2013-06-17 05:22:00,
2013-06-17 01:27:00,66.7,66.2,29.86,SE,146,0.0,2.0,98,0.00,,,0.00,meteohub,2013-06-17 05:27:00,
2013-06-17 01:32:00,66.7,66.2,29.86,SSE,148,0.0,2.0,98,0.00,,,0.00,meteohub,2013-06-17 05:32:00,
2013-06-17 01:37:00,66.6,65.7,29.86,SSE,155,0.0,2.0,97,0.00,,,0.00,meteohub,2013-06-17 05:37:00,
2013-06-17 01:42:00,66.4,65.5,29.86,SSE,155,0.0,1.0,97,0.00,,,0.00,meteohub,2013-06-17 05:42:00,
2013-06-17 01:47:00,66.4,65.5,29.86,SSE,155,0.0,0.0,97,0.00,,,0.00,meteohub,2013-06-17 05:47:00,
2013-06-17 01:52:00,66.4,65.8,29.86,SE,145,2.0,0.0,98,0.00,,,0.00,meteohub,2013-06-17 05:52:00,
2013-06-17 01:57:00,66.4,65.8,29.86,SSE,147,0.0,2.0,98,0.00,,,0.00,meteohub,2013-06-17 05:57:00,
2013-06-17 02:02:00,66.2,65.7,29.86,SSE,152,0.0,2.0,98,0.00,,,0.00,meteohub,2013-06-17 06:02:00,
2013-06-17 02:07:00,66.0,65.1,29.85,SSE,152,0.0,2.0,97,0.00,,,0.00,meteohub,2013-06-17 06:07:00,
2013-06-17 02:12:00,66.0,65.5,29.86,SSE,153,0.0,1.0,98,0.00,,,0.00,meteohub,2013-06-17 06:12:00,
2013-06-17 02:17:00,66.0,65.5,29.86,SSE,152,0.0,0.0,98,0.00,,,0.00,meteohub,2013-06-17 06:17:00,
2013-06-17 02:22:00,66.0,65.5,29.86,SSE,156,0.0,0.0,98,0.00,,,0.00,meteohub,2013-06-17 06:22:00,
2013-06-17 02:27:00,66.0,65.5,29.86,SSE,156,0.0,0.0,98,0.00,,,0.00,meteohub,2013-06-17 06:27:00,
2013-06-17 02:32:00,66.0,65.5,29.86,SSE,148,0.0,0.0,98,0.00,,,0.00,meteohub,2013-06-17 06:32:00,
2013-06-17 02:37:00,66.0,65.5,29.86,SSE,148,0.0,0.0,98,0.00,,,0.00,meteohub,2013-06-17 06:37:00,
2013-06-17 02:42:00,65.8,65.3,29.86,SSE,148,0.0,0.0,98,0.00,,,0.00,meteohub,2013-06-17 06:42:00,
2013-06-17 02:47:00,65.8,65.3,29.86,SSE,153,0.0,0.0,98,0.00,,,0.00,meteohub,2013-06-17 06:47:00,
2013-06-17 02:52:00,65.7,65.1,29.86,SSE,153,0.0,0.0,98,0.00,,,0.00,meteohub,2013-06-17 06:52:00,
2013-06-17 02:57:00,65.5,64.9,29.86,SSE,153,0.0,0.0,98,0.00,,,0.00,meteohub,2013-06-17 06:57:00,
2013-06-17 03:02:00,65.5,64.9,29.86,SSE,152,0.0,0.0,98,0.00,,,0.00,meteohub,2013-06-17 07:02:00,
2013-06-17 03:07:00,65.5,64.9,29.86,SSE,152,0.0,0.0,98,0.00,,,0.00,meteohub,2013-06-17 07:07:00,
2013-06-17 03:12:00,65.5,64.9,29.86,SSE,152,0.0,0.0,98,0.00,,,0.00,meteohub,2013-06-17 07:12:00,
2013-06-17 03:17:00,65.5,64.9,29.86,SSE,153,0.0,0.0,98,0.00,,,0.00,meteohub,2013-06-17 07:17:00,
2013-06-17 03:22:00,65.5,64.9,29.86,SSE,153,0.0,0.0,98,0.00,,,0.00,meteohub,2013-06-17 07:22:00,
2013-06-17 03:27:00,65.5,64.9,29.86,SSE,152,0.0,0.0,98,0.00,,,0.00,meteohub,2013-06-17 07:27:00,
2013-06-17 03:32:00,65.7,65.1,29.86,SSE,153,0.0,0.0,98,0.00,,,0.00,meteohub,2013-06-17 07:32:00,
2013-06-17 03:37:00,65.7,65.1,29.86,SSE,153,0.0,0.0,98,0.00,,,0.00,meteohub,2013-06-17 07:37:00,
2013-06-17 03:42:00,65.7,65.1,29.86,SSE,153,0.0,0.0,98,0.00,,,0.00,meteohub,2013-06-17 07:42:00,
2013-06-17 03:47:00,65.7,65.1,29.86,SSE,153,0.0,0.0,98,0.00,,,0.00,meteohub,2013-06-17 07:47:00,
2013-06-17 03:52:00,65.5,64.9,29.86,SSE,148,0.0,0.0,98,0.00,,,0.00,meteohub,2013-06-17 07:52:00,
2013-06-17 03:57:00,65.7,65.1,29.86,SSE,148,0.0,2.0,98,0.00,,,0.00,meteohub,2013-06-17 07:57:00,
2013-06-17 04:02:00,65.5,64.9,29.86,SSE,153,0.0,2.0,98,0.00,,,0.00,meteohub,2013-06-17 08:02:00,
2013-06-17 04:07:00,65.5,64.9,29.86,SSE,153,0.0,2.0,98,0.00,,,0.00,meteohub,2013-06-17 08:07:00,
2013-06-17 04:12:00,65.5,64.9,29.86,SSE,153,0.0,1.0,98,0.00,,,0.00,meteohub,2013-06-17 08:12:00,
2013-06-17 04:17:00,65.7,65.1,29.86,SSE,153,0.0,0.0,98,0.00,,,0.00,meteohub,2013-06-17 08:17:00,
2013-06-17 04:22:00,65.7,65.1,29.86,SSE,153,0.0,0.0,98,0.00,,,0.00,meteohub,2013-06-17 08:22:00,
2013-06-17 04:27:00,65.8,65.3,29.86,SSE,153,0.0,0.0,98,0.00,,,0.00,meteohub,2013-06-17 08:27:00,
2013-06-17 04:32:00,65.8,65.3,29.86,SSE,153,0.0,0.0,98,0.00,,,0.00,meteohub,2013-06-17 08:32:00,
2013-06-17 04:37:00,65.8,65.3,29.86,SSE,158,0.0,0.0,98,0.00,,,0.00,meteohub,2013-06-17 08:37:00,
2013-06-17 04:42:00,65.8,65.3,29.86,SSE,158,0.0,1.0,98,0.00,,,0.00,meteohub,2013-06-17 08:42:00,
2013-06-17 04:47:00,65.8,65.3,29.87,SSE,153,0.0,2.0,98,0.00,,,0.00,meteohub,2013-06-17 08:47:00,
2013-06-17 04:52:00,66.0,65.5,29.87,SSE,155,0.0,2.0,98,0.00,,,0.00,meteohub,2013-06-17 08:52:00,
2013-06-17 04:57:00,66.0,65.5,29.87,SSE,148,0.0,2.0,98,0.00,,,0.00,meteohub,2013-06-17 08:57:00,
2013-06-17 05:02:00,66.2,65.7,29.86,SSE,147,0.0,2.0,98,0.00,,,0.00,meteohub,2013-06-17 09:02:00,
2013-06-17 05:07:00,66.2,65.7,29.86,SE,144,1.0,2.0,98,0.00,,,0.00,meteohub,2013-06-17 09:07:00,
2013-06-17 05:12:00,66.4,65.8,29.86,SE,145,0.0,2.0,98,0.00,,,0.00,meteohub,2013-06-17 09:12:00,
2013-06-17 05:17:00,66.4,65.8,29.86,SE,145,0.0,2.0,98,0.00,,,0.00,meteohub,2013-06-17 09:17:00,
2013-06-17 05:22:00,66.4,65.8,29.87,SE,145,0.0,1.0,98,0.00,,,0.00,meteohub,2013-06-17 09:22:00,
2013-06-17 05:27:00,66.4,65.8,29.86,SE,146,0.0,1.0,98,0.00,,,0.00,meteohub,2013-06-17 09:27:00,
2013-06-17 05:32:00,66.4,65.8,29.86,SE,145,0.0,1.0,98,0.00,,,0.00,meteohub,2013-06-17 09:32:00,
2013-06-17 05:37:00,66.4,65.8,29.86,SE,146,0.0,1.0,98,0.00,,,0.00,meteohub,2013-06-17 09:37:00,
2013-06-17 05:42:00,66.4,65.8,29.86,SE,145,0.0,1.0,98,0.00,,,0.00,meteohub,2013-06-17 09:42:00,
2013-06-17 05:47:00,66.4,65.8,29.86,SE,146,0.0,1.0,98,0.00,,,0.00,meteohub,2013-06-17 09:47:00,
2013-06-17 05:52:00,66.4,65.8,29.86,SE,138,2.0,0.0,98,0.00,,,0.00,meteohub,2013-06-17 09:52:00,
2013-06-17 05:57:00,66.4,65.8,29.86,SE,132,1.0,3.0,98,0.00,,,0.00,meteohub,2013-06-17 09:57:00,
2013-06-17 06:02:00,66.2,65.7,29.86,SSE,159,1.0,3.0,98,0.00,,,0.00,meteohub,2013-06-17 10:02:00,
2013-06-17 06:07:00,66.0,65.5,29.86,SSE,160,1.0,3.0,98,0.00,,,0.00,meteohub,2013-06-17 10:07:00,
2013-06-17 06:12:00,66.0,65.5,29.86,SSE,159,0.0,1.0,98,0.00,,,0.00,meteohub,2013-06-17 10:12:00,
2013-06-17 06:17:00,65.8,65.3,29.86,SSE,160,0.0,1.0,98,0.00,,,0.00,meteohub,2013-06-17 10:17:00,
2013-06-17 06:22:00,65.8,65.3,29.86,SSE,160,0.0,1.0,98,0.00,,,0.00,meteohub,2013-06-17 10:22:00,
2013-06-17 06:27:00,65.7,65.1,29.86,SSE,160,0.0,1.0,98,0.00,,,0.00,meteohub,2013-06-17 10:27:00,
2013-06-17 06:32:00,65.5,64.9,29.86,SSE,158,0.0,0.0,98,0.00,,,0.00,meteohub,2013-06-17 10:32:00,
2013-06-17 06:37:00,65.5,64.9,29.86,SSE,158,0.0,0.0,98,0.00,,,0.00,meteohub,2013-06-17 10:37:00,
2013-06-17 06:42:00,65.5,64.9,29.87,SSE,158,0.0,0.0,98,0.00,,,0.00,meteohub,2013-06-17 10:42:00,
2013-06-17 06:47:00,65.7,65.1,29.86,SSE,155,0.0,0.0,98,0.00,,,0.00,meteohub,2013-06-17 10:47:00,
2013-06-17 06:52:00,65.7,65.1,29.86,SSE,153,0.0,0.0,98,0.00,,,0.00,meteohub,2013-06-17 10:52:00,
2013-06-17 06:57:00,65.8,65.3,29.87,SE,132,2.0,0.0,98,0.00,,,0.00,meteohub,2013-06-17 10:57:00,
2013-06-17 07:02:00,65.7,65.1,29.87,SE,134,1.0,3.0,98,0.00,,,0.00,meteohub,2013-06-17 11:02:00,
2013-06-17 07:07:00,65.7,65.1,29.87,SE,134,0.0,3.0,98,0.00,,,0.00,meteohub,2013-06-17 11:07:00,
2013-06-17 07:12:00,65.7,65.1,29.87,SE,138,1.0,3.0,98,0.00,,,0.00,meteohub,2013-06-17 11:12:00,
2013-06-17 07:17:00,65.7,65.1,29.87,SE,138,0.0,3.0,98,0.00,,,0.00,meteohub,2013-06-17 11:17:00,
2013-06-17 07:22:00,65.7,65.1,29.88,SE,133,1.0,1.0,98,0.00,,,0.00,meteohub,2013-06-17 11:22:00,
2013-06-17 07:27:00,65.7,65.1,29.87,SSE,160,0.0,1.0,98,0.00,,,0.00,meteohub,2013-06-17 11:27:00,
2013-06-17 07:32:00,65.7,65.1,29.87,SSE,160,0.0,1.0,98,0.00,,,0.00,meteohub,2013-06-17 11:32:00,
2013-06-17 07:37:00,65.7,65.1,29.87,SSE,166,1.0,1.0,98,0.00,,,0.00,meteohub,2013-06-17 11:37:00,
2013-06-17 07:42:00,65.8,65.3,29.87,SSE,153,1.0,2.0,98,0.00,,,0.00,meteohub,2013-06-17 11:42:00,
2013-06-17 07:47:00,66.4,65.8,29.87,SSE,149,1.0,2.0,98,0.00,,,0.00,meteohub,2013-06-17 11:47:00,
2013-06-17 07:52:00,66.6,66.0,29.86,SSE,152,1.0,2.0,98,0.00,,,0.00,meteohub,2013-06-17 11:52:00,
2013-06-17 07:57:00,66.7,66.2,29.87,SSE,153,0.0,2.0,98,0.00,,,0.00,meteohub,2013-06-17 11:57:00,
2013-06-17 08:02:00,66.7,66.2,29.87,SSE,149,0.0,2.0,98,0.00,,,0.00,meteohub,2013-06-17 12:02:00,
2013-06-17 08:07:00,67.1,66.6,29.87,SSE,149,0.0,1.0,98,0.00,,,0.00,meteohub,2013-06-17 12:07:00,
2013-06-17 08:12:00,67.6,67.3,29.87,SSE,149,0.0,0.0,99,0.00,,,0.00,meteohub,2013-06-17 12:12:00,
2013-06-17 08:17:00,68.4,68.0,29.87,SSE,149,0.0,0.0,99,0.00,,,0.00,meteohub,2013-06-17 12:17:00,
2013-06-17 08:22:00,67.8,67.3,29.86,SE,134,1.0,0.0,98,0.00,,,0.00,meteohub,2013-06-17 12:22:00,
2013-06-17 08:27:00,67.6,67.1,29.87,SE,134,1.0,3.0,98,0.00,,,0.00,meteohub,2013-06-17 12:27:00,
2013-06-17 08:32:00,67.5,66.9,29.87,SE,127,3.0,3.0,98,0.00,,,0.00,meteohub,2013-06-17 12:32:00,
2013-06-17 08:37:00,67.5,66.9,29.87,SE,127,4.0,4.0,98,0.00,,,0.00,meteohub,2013-06-17 12:37:00,
2013-06-17 08:42:00,67.5,66.9,29.87,SE,129,2.0,4.0,98,0.00,,,0.00,meteohub,2013-06-17 12:42:00,
2013-06-17 08:47:00,67.6,67.1,29.88,SE,129,0.0,4.0,98,0.00,,,0.00,meteohub,2013-06-17 12:47:00,
2013-06-17 08:52:00,68.2,67.6,29.88,SE,131,0.0,4.0,98,0.00,,,0.00,meteohub,2013-06-17 12:52:00,
2013-06-17 08:57:00,68.4,67.8,29.88,SE,131,0.0,3.0,98,0.00,,,0.00,meteohub,2013-06-17 12:57:00,
2013-06-17 09:02:00,69.1,68.5,29.88,SE,133,0.0,2.0,98,0.00,,,0.00,meteohub,2013-06-17 13:02:00,
2013-06-17 09:07:00,69.3,68.7,29.88,SE,132,0.0,2.0,98,0.00,,,0.00,meteohub,2013-06-17 13:07:00,
2013-06-17 09:12:00,69.3,68.7,29.88,SE,127,2.0,2.0,98,0.00,,,0.00,meteohub,2013-06-17 13:12:00,
2013-06-17 09:17:00,69.6,69.1,29.88,SE,132,0.0,2.0,98,0.00,,,0.00,meteohub,2013-06-17 13:17:00,
2013-06-17 09:22:00,70.2,69.6,29.87,SSE,153,1.0,2.0,98,0.00,,,0.00,meteohub,2013-06-17 13:22:00,
2013-06-17 09:27:00,70.0,69.1,29.88,SE,131,0.0,2.0,97,0.00,,,0.00,meteohub,2013-06-17 13:27:00,
2013-06-17 09:32:00,70.3,69.1,29.87,SSE,162,2.0,3.0,96,0.00,,,0.00,meteohub,2013-06-17 13:32:00,
2013-06-17 09:37:00,70.7,69.4,29.88,SSE,166,1.0,3.0,96,0.00,,,0.00,meteohub,2013-06-17 13:37:00,
2013-06-17 09:42:00,70.9,69.4,29.88,SSE,152,0.0,3.0,95,0.00,,,0.00,meteohub,2013-06-17 13:42:00,
2013-06-17 09:47:00,71.2,69.4,29.87,SE,141,0.0,2.0,94,0.00,,,0.00,meteohub,2013-06-17 13:47:00,
2013-06-17 09:52:00,71.4,69.3,29.87,SE,134,1.0,2.0,93,0.00,,,0.00,meteohub,2013-06-17 13:52:00,
2013-06-17 09:57:00,72.0,69.4,29.87,SE,129,1.0,2.0,92,0.00,,,0.00,meteohub,2013-06-17 13:57:00,
2013-06-17 10:02:00,72.1,69.6,29.87,SE,131,2.0,2.0,92,0.00,,,0.00,meteohub,2013-06-17 14:02:00,
2013-06-17 10:07:00,72.1,69.1,29.87,SE,131,1.0,3.0,90,0.00,,,0.00,meteohub,2013-06-17 14:07:00,
2013-06-17 10:12:00,72.7,69.6,29.87,ESE,110,2.0,3.0,90,0.00,,,0.00,meteohub,2013-06-17 14:12:00,
2013-06-17 10:17:00,73.0,70.0,29.87,ESE,109,2.0,5.0,90,0.00,,,0.00,meteohub,2013-06-17 14:17:00,
2013-06-17 10:22:00,73.0,69.3,29.87,ESE,111,1.0,5.0,88,0.00,,,0.00,meteohub,2013-06-17 14:22:00,
2013-06-17 10:27:00,74.1,70.7,29.87,ESE,116,0.0,4.0,89,0.00,,,0.00,meteohub,2013-06-17 14:27:00,
2013-06-17 10:32:00,75.9,70.7,29.87,ESE,120,0.0,3.0,84,0.00,,,0.00,meteohub,2013-06-17 14:32:00,
2013-06-17 10:37:00,76.6,71.1,29.87,ESE,122,1.0,3.0,83,0.00,,,0.00,meteohub,2013-06-17 14:37:00,
2013-06-17 10:42:00,77.4,71.1,29.87,ESE,118,0.0,2.0,81,0.00,,,0.00,meteohub,2013-06-17 14:42:00,
2013-06-17 10:47:00,77.9,71.2,29.86,ESE,115,1.0,2.0,80,0.00,,,0.00,meteohub,2013-06-17 14:47:00,
2013-06-17 10:52:00,77.5,70.9,29.86,SSE,160,0.0,2.0,80,0.00,,,0.00,meteohub,2013-06-17 14:52:00,
2013-06-17 10:57:00,77.5,70.9,29.86,ESE,113,0.0,2.0,80,0.00,,,0.00,meteohub,2013-06-17 14:57:00,
2013-06-17 11:02:00,77.4,70.7,29.86,ESE,105,2.0,3.0,80,0.00,,,0.00,meteohub,2013-06-17 15:02:00,
2013-06-17 11:07:00,77.0,71.1,29.86,ESE,110,1.0,5.0,82,0.00,,,0.00,meteohub,2013-06-17 15:07:00,
2013-06-17 11:12:00,77.7,71.8,29.86,ESE,113,0.0,5.0,82,0.00,,,0.00,meteohub,2013-06-17 15:12:00,
2013-06-17 11:17:00,79.0,72.7,29.86,SE,128,0.0,5.0,81,0.00,,,0.00,meteohub,2013-06-17 15:17:00,
2013-06-17 11:22:00,80.4,71.8,29.86,North,9,2.0,2.0,75,0.00,,,0.00,meteohub,2013-06-17 15:22:00,
2013-06-17 11:27:00,79.5,72.1,29.86,NE,52,0.0,5.0,78,0.00,,,0.00,meteohub,2013-06-17 15:27:00,
2013-06-17 11:32:00,79.5,72.1,29.86,WNW,287,2.0,5.0,78,0.00,,,0.00,meteohub,2013-06-17 15:32:00,
2013-06-17 11:37:00,79.5,72.1,29.86,NE,56,1.0,5.0,78,0.00,,,0.00,meteohub,2013-06-17 15:37:00,
2013-06-17 11:42:00,80.2,72.7,29.86,East,92,0.0,3.0,78,0.00,,,0.00,meteohub,2013-06-17 15:42:00,
2013-06-17 11:47:00,81.3,73.0,29.86,ENE,77,1.0,2.0,76,0.00,,,0.00,meteohub,2013-06-17 15:47:00,
2013-06-17 11:52:00,81.9,73.2,29.86,East,90,0.0,3.0,75,0.00,,,0.00,meteohub,2013-06-17 15:52:00,
2013-06-17 11:57:00,83.1,73.6,29.86,ESE,107,0.0,3.0,73,0.00,,,0.00,meteohub,2013-06-17 15:57:00,
2013-06-17 12:02:00,84.0,73.2,29.85,ESE,113,1.0,3.0,70,0.00,,,0.00,meteohub,2013-06-17 16:02:00,
2013-06-17 12:07:00,84.6,73.8,29.85,ENE,62,3.0,3.0,70,0.00,,,0.00,meteohub,2013-06-17 16:07:00,
2013-06-17 12:12:00,84.6,72.3,29.85,NE,54,3.0,5.0,67,0.00,,,0.00,meteohub,2013-06-17 16:12:00,
2013-06-17 12:17:00,83.7,72.9,29.85,SSE,150,1.0,5.0,70,0.00,,,0.00,meteohub,2013-06-17 16:17:00,
2013-06-17 12:22:00,84.0,72.3,29.85,NNE,13,2.0,5.0,68,0.00,,,0.00,meteohub,2013-06-17 16:22:00,
2013-06-17 12:27:00,83.1,72.0,29.84,NNE,23,3.0,4.0,69,0.00,,,0.00,meteohub,2013-06-17 16:27:00,
2013-06-17 12:32:00,83.5,72.7,29.84,NNE,16,5.0,6.0,70,0.00,,,0.00,meteohub,2013-06-17 16:32:00,
2013-06-17 12:37:00,83.5,72.3,29.84,NE,46,3.0,6.0,69,0.00,,,0.00,meteohub,2013-06-17 16:37:00,
2013-06-17 12:42:00,82.0,71.8,29.84,NE,37,5.0,6.0,71,0.00,,,0.00,meteohub,2013-06-17 16:42:00,
2013-06-17 12:47:00,81.3,72.3,29.84,NE,50,4.0,7.0,74,0.00,,,0.00,meteohub,2013-06-17 16:47:00,
2013-06-17 12:52:00,81.9,71.1,29.84,East,99,0.0,8.0,70,0.00,,,0.00,meteohub,2013-06-17 16:52:00,
2013-06-17 12:57:00,82.0,71.2,29.84,NNE,16,3.0,8.0,70,0.00,,,0.00,meteohub,2013-06-17 16:57:00,
2013-06-17 13:02:00,82.0,71.2,29.84,NNE,30,1.0,7.0,70,0.00,,,0.00,meteohub,2013-06-17 17:02:00,
2013-06-17 13:07:00,82.0,70.9,29.84,SSE,155,2.0,7.0,69,0.00,,,0.00,meteohub,2013-06-17 17:07:00,
2013-06-17 13:12:00,81.9,71.1,29.84,South,184,2.0,6.0,70,0.00,,,0.00,meteohub,2013-06-17 17:12:00,
2013-06-17 13:17:00,82.2,72.0,29.84,NNE,32,2.0,4.0,71,0.00,,,0.00,meteohub,2013-06-17 17:17:00,
2013-06-17 13:22:00,83.5,70.9,29.83,ENE,61,3.0,4.0,66,0.00,,,0.00,meteohub,2013-06-17 17:22:00,
2013-06-17 13:27:00,82.9,70.9,29.83,NNE,30,5.0,5.0,67,0.00,,,0.00,meteohub,2013-06-17 17:27:00,
2013-06-17 13:32:00,82.2,71.1,29.83,NE,51,1.0,8.0,69,0.00,,,0.00,meteohub,2013-06-17 17:32:00,
2013-06-17 13:37:00,82.6,70.0,29.84,South,179,1.0,8.0,66,0.00,,,0.00,meteohub,2013-06-17 17:37:00,
2013-06-17 13:42:00,83.7,72.9,29.83,NNW,331,3.0,8.0,70,0.00,,,0.00,meteohub,2013-06-17 17:42:00,
2013-06-17 13:52:00,84.0,72.3,29.83,East,83,4.0,6.0,68,0.00,,,0.00,meteohub,2013-06-17 17:52:00,
2013-06-17 14:02:00,83.5,70.0,29.83,NNE,32,4.0,8.0,64,0.00,,,0.00,meteohub,2013-06-17 18:02:00,
2013-06-17 14:12:00,82.9,70.9,29.83,SW,226,2.0,7.0,67,0.00,,,0.00,meteohub,2013-06-17 18:12:00,
2013-06-17 14:17:00,83.7,71.1,29.83,NW,311,1.0,6.0,66,0.00,,,0.00,meteohub,2013-06-17 18:17:00,
2013-06-17 14:22:00,84.6,70.2,29.83,NNE,21,1.0,3.0,62,0.00,,,0.00,meteohub,2013-06-17 18:22:00,
2013-06-17 14:42:00,87.4,72.9,29.82,South,170,0.0,2.0,62,0.00,,,0.00,meteohub,2013-06-17 18:42:00,
2013-06-17 14:47:00,88.0,70.9,29.82,SSE,158,1.0,4.0,57,0.00,,,0.00,meteohub,2013-06-17 18:47:00,
2013-06-17 14:52:00,87.8,69.6,29.81,SE,124,0.0,4.0,55,0.00,,,0.00,meteohub,2013-06-17 18:52:00,
2013-06-17 14:57:00,87.4,69.8,29.81,SE,139,0.0,4.0,56,0.00,,,0.00,meteohub,2013-06-17 18:57:00,
2013-06-17 15:02:00,88.2,70.5,29.81,SE,143,0.0,4.0,56,0.00,,,0.00,meteohub,2013-06-17 19:02:00,
2013-06-17 15:07:00,89.2,69.8,29.81,SSE,149,0.0,3.0,53,0.00,,,0.00,meteohub,2013-06-17 19:07:00,
2013-06-17 15:12:00,90.0,71.6,29.80,North,355,5.0,5.0,55,0.00,,,0.00,meteohub,2013-06-17 19:12:00,
2013-06-17 15:17:00,88.0,69.8,29.80,West,268,1.0,5.0,55,0.00,,,0.00,meteohub,2013-06-17 19:17:00,
2013-06-17 15:22:00,86.7,69.6,29.80,South,177,4.0,5.0,57,0.00,,,0.00,meteohub,2013-06-17 19:22:00,
2013-06-17 15:27:00,85.8,70.9,29.80,SSW,203,3.0,5.0,61,0.00,,,0.00,meteohub,2013-06-17 19:27:00,
2013-06-17 15:32:00,85.8,69.8,29.80,WSW,237,2.0,4.0,59,0.00,,,0.00,meteohub,2013-06-17 19:32:00,
2013-06-17 15:37:00,86.4,71.2,29.79,SW,226,0.0,4.0,61,0.00,,,0.00,meteohub,2013-06-17 19:37:00,
2013-06-17 15:42:00,86.2,70.2,29.79,NE,41,2.0,6.0,59,0.00,,,0.00,meteohub,2013-06-17 19:42:00,
2013-06-17 15:57:00,88.3,70.7,29.78,SSW,204,1.0,4.0,56,0.00,,,0.00,meteohub,2013-06-17 19:57:00,
2013-06-17 16:02:00,88.9,68.9,29.78,NE,53,1.0,4.0,52,0.00,,,0.00,meteohub,2013-06-17 20:02:00,
2013-06-17 16:07:00,89.1,70.2,29.77,NNE,32,1.0,7.0,54,0.00,,,0.00,meteohub,2013-06-17 20:07:00,
2013-06-17 16:12:00,89.6,69.1,29.77,NNW,339,2.0,7.0,51,0.00,,,0.00,meteohub,2013-06-17 20:12:00,
2013-06-17 16:17:00,88.2,68.4,29.77,NNE,16,1.0,7.0,52,0.00,,,0.00,meteohub,2013-06-17 20:17:00,
2013-06-17 16:22:00,88.9,70.7,29.77,NE,37,1.0,5.0,55,0.00,,,0.00,meteohub,2013-06-17 20:22:00,
2013-06-17 16:27:00,90.3,69.1,29.76,SW,228,2.0,5.0,50,0.00,,,0.00,meteohub,2013-06-17 20:27:00,
2013-06-17 16:32:00,89.8,68.0,29.76,West,271,2.0,3.0,49,0.00,,,0.00,meteohub,2013-06-17 20:32:00,
2013-06-17 16:37:00,88.5,68.0,29.76,SW,236,4.0,5.0,51,0.00,,,0.00,meteohub,2013-06-17 20:37:00,
2013-06-17 16:42:00,87.6,67.3,29.76,West,280,2.0,5.0,51,0.00,,,0.00,meteohub,2013-06-17 20:42:00,
2013-06-17 16:47:00,88.0,68.2,29.75,NNE,26,1.0,5.0,52,0.00,,,0.00,meteohub,2013-06-17 20:47:00,
2013-06-17 16:52:00,88.7,67.6,29.75,NNE,23,1.0,5.0,50,0.00,,,0.00,meteohub,2013-06-17 20:52:00,
2013-06-17 16:57:00,88.5,67.5,29.75,North,355,4.0,4.0,50,0.00,,,0.00,meteohub,2013-06-17 20:57:00,
2013-06-17 17:02:00,88.0,68.7,29.75,NE,46,2.0,4.0,53,0.00,,,0.00,meteohub,2013-06-17 21:02:00,
2013-06-17 17:07:00,88.9,68.4,29.75,NNE,20,1.0,4.0,51,0.00,,,0.00,meteohub,2013-06-17 21:07:00,
2013-06-17 17:12:00,89.1,69.1,29.75,SSW,197,2.0,4.0,52,0.00,,,0.00,meteohub,2013-06-17 21:12:00,
2013-06-17 17:17:00,88.0,73.8,29.75,SE,145,2.0,4.0,63,0.00,,,0.00,meteohub,2013-06-17 21:17:00,
2013-06-17 17:22:00,86.5,73.8,29.75,SSE,150,2.0,4.0,66,0.00,,,0.00,meteohub,2013-06-17 21:22:00,
2013-06-17 17:27:00,85.8,74.5,29.75,SSE,147,1.0,4.0,69,0.00,,,0.00,meteohub,2013-06-17 21:27:00,
2013-06-17 17:37:00,87.3,73.6,29.74,SSE,150,1.0,2.0,64,0.00,,,0.00,meteohub,2013-06-17 21:37:00,
2013-06-17 17:42:00,87.6,73.0,29.74,SSE,148,1.0,2.0,62,0.00,,,0.00,meteohub,2013-06-17 21:42:00,
2013-06-17 17:47:00,88.0,74.3,29.74,South,170,1.0,2.0,64,0.00,,,0.00,meteohub,2013-06-17 21:47:00,
2013-06-17 17:52:00,87.3,74.5,29.74,SSE,150,2.0,2.0,66,0.00,,,0.00,meteohub,2013-06-17 21:52:00,
2013-06-17 17:57:00,84.9,72.3,29.74,SSE,153,3.0,3.0,66,0.00,,,0.00,meteohub,2013-06-17 21:57:00,
2013-06-17 18:02:00,83.8,72.1,29.74,SSE,158,4.0,4.0,68,0.00,,,0.00,meteohub,2013-06-17 22:02:00,
2013-06-17 18:07:00,82.8,72.3,29.74,SSE,155,3.0,4.0,71,0.00,,,0.00,meteohub,2013-06-17 22:07:00,
2013-06-17 18:12:00,81.7,73.8,29.75,South,169,4.0,4.0,77,0.00,,,0.00,meteohub,2013-06-17 22:12:00,
2013-06-17 18:17:00,81.3,73.0,29.75,South,184,2.0,4.0,76,0.00,,,0.00,meteohub,2013-06-17 22:17:00,
2013-06-17 18:22:00,81.1,73.9,29.75,SSE,147,1.0,4.0,79,0.00,,,0.00,meteohub,2013-06-17 22:22:00,
2013-06-17 18:27:00,80.4,73.2,29.74,SSE,148,0.0,4.0,79,0.00,,,0.00,meteohub,2013-06-17 22:27:00,
2013-06-17 18:32:00,80.2,73.6,29.74,SSE,148,0.0,4.0,80,0.00,,,0.00,meteohub,2013-06-17 22:32:00,
2013-06-17 18:37:00,79.9,73.2,29.74,SSE,148,1.0,1.0,80,0.00,,,0.00,meteohub,2013-06-17 22:37:00,
2013-06-17 18:42:00,79.3,72.7,29.74,SSE,163,2.0,3.0,80,0.00,,,0.00,meteohub,2013-06-17 22:42:00,
2013-06-17 18:47:00,79.5,73.2,29.75,SSE,149,2.0,3.0,81,0.00,,,0.00,meteohub,2013-06-17 22:47:00,
2013-06-17 18:52:00,79.2,72.9,29.75,SSE,148,2.0,3.0,81,0.00,,,0.00,meteohub,2013-06-17 22:52:00,
2013-06-17 18:57:00,78.8,73.6,29.75,SSE,160,2.0,3.0,84,0.00,,,0.00,meteohub,2013-06-17 22:57:00,
2013-06-17 19:02:00,78.6,73.4,29.75,SSE,153,1.0,3.0,84,0.00,,,0.00,meteohub,2013-06-17 23:02:00,
2013-06-17 19:07:00,78.3,72.3,29.75,SSE,149,2.0,3.0,82,0.00,,,0.00,meteohub,2013-06-17 23:07:00,
2013-06-17 19:12:00,78.3,72.3,29.75,SSE,155,2.0,3.0,82,0.00,,,0.00,meteohub,2013-06-17 23:12:00,
2013-06-17 19:17:00,78.1,72.5,29.75,SSE,148,1.0,3.0,83,0.00,,,0.00,meteohub,2013-06-17 23:17:00,
2013-06-17 19:22:00,77.9,72.7,29.76,SSE,160,1.0,3.0,84,0.00,,,0.00,meteohub,2013-06-17 23:22:00,
2013-06-17 19:27:00,77.5,72.3,29.76,SSE,150,1.0,2.0,84,0.00,,,0.00,meteohub,2013-06-17 23:27:00,
2013-06-17 19:32:00,77.2,72.0,29.76,SSE,151,3.0,3.0,84,0.00,,,0.00,meteohub,2013-06-17 23:32:00,
2013-06-17 19:42:00,76.8,71.6,29.76,SSE,149,2.0,3.0,84,0.00,,,0.00,meteohub,2013-06-17 23:42:00,
2013-06-17 19:47:00,76.8,71.2,29.76,SSE,160,3.0,3.0,83,0.00,,,0.00,meteohub,2013-06-17 23:47:00,
2013-06-17 19:52:00,76.8,71.2,29.75,SSE,153,2.0,3.0,83,0.00,,,0.00,meteohub,2013-06-17 23:52:00,
2013-06-17 19:57:00,76.5,70.9,29.75,SSE,158,3.0,3.0,83,0.00,,,0.00,meteohub,2013-06-17 23:57:00,
2013-06-17 20:02:00,76.5,70.5,29.75,SSE,150,2.0,4.0,82,0.00,,,0.00,meteohub,2013-06-18 00:02:00,
2013-06-17 20:07:00,75.9,70.7,29.75,SSE,158,0.0,4.0,84,0.00,,,0.00,meteohub,2013-06-18 00:07:00,
2013-06-17 20:12:00,75.7,70.9,29.75,SSE,156,0.0,4.0,85,0.00,,,0.00,meteohub,2013-06-18 00:12:00,
2013-06-17 20:17:00,75.6,70.7,29.75,SSE,156,1.0,2.0,85,0.00,,,0.00,meteohub,2013-06-18 00:17:00,
2013-06-17 20:22:00,75.4,71.2,29.75,SSE,149,0.0,1.0,87,0.00,,,0.00,meteohub,2013-06-18 00:22:00,
2013-06-17 20:27:00,75.7,72.3,29.76,SSE,166,1.0,1.0,89,0.00,,,0.00,meteohub,2013-06-18 00:27:00,
2013-06-17 20:32:00,75.9,72.9,29.76,SW,225,0.0,1.0,90,0.00,,,0.00,meteohub,2013-06-18 00:32:00,
2013-06-17 20:37:00,75.9,72.5,29.76,SSE,149,0.0,1.0,89,0.00,,,0.00,meteohub,2013-06-18 00:37:00,
2013-06-17 20:42:00,75.7,72.0,29.76,SE,145,0.0,1.0,88,0.00,,,0.00,meteohub,2013-06-18 00:42:00,
2013-06-17 20:47:00,75.4,72.0,29.76,SE,145,0.0,1.0,89,0.00,,,0.00,meteohub,2013-06-18 00:47:00,
2013-06-17 20:52:00,75.2,72.1,29.77,SE,145,0.0,0.0,90,0.00,,,0.00,meteohub,2013-06-18 00:52:00,
2013-06-17 21:02:00,74.8,71.8,29.77,SSE,150,0.0,0.0,90,0.00,,,0.00,meteohub,2013-06-18 01:02:00,
2013-06-17 21:07:00,74.8,72.0,29.77,SSE,150,0.0,0.0,91,0.00,,,0.00,meteohub,2013-06-18 01:07:00,
2013-06-17 21:12:00,74.7,71.8,29.78,SE,141,0.0,0.0,91,0.00,,,0.00,meteohub,2013-06-18 01:12:00,
2013-06-17 21:17:00,74.8,72.3,29.78,SE,146,0.0,0.0,92,0.00,,,0.00,meteohub,2013-06-18 01:17:00,
2013-06-17 21:22:00,74.8,72.0,29.78,SE,146,0.0,0.0,91,0.00,,,0.00,meteohub,2013-06-18 01:22:00,
2013-06-17 21:27:00,74.8,72.3,29.77,SE,145,0.0,0.0,92,0.00,,,0.00,meteohub,2013-06-18 01:27:00,
2013-06-17 21:32:00,74.8,72.3,29.77,SE,146,0.0,0.0,92,0.00,,,0.00,meteohub,2013-06-18 01:32:00,
2013-06-17 21:37:00,74.7,71.8,29.77,SE,145,0.0,0.0,91,0.00,,,0.00,meteohub,2013-06-18 01:37:00,
2013-06-17 21:42:00,74.5,72.0,29.77,SE,146,0.0,0.0,92,0.00,,,0.00,meteohub,2013-06-18 01:42:00,
2013-06-17 21:47:00,74.5,72.0,29.77,SE,145,0.0,0.0,92,0.00,,,0.00,meteohub,2013-06-18 01:47:00,
2013-06-17 21:52:00,74.3,71.8,29.77,SE,146,0.0,1.0,92,0.00,,,0.00,meteohub,2013-06-18 01:52:00,
2013-06-17 21:57:00,74.1,71.6,29.77,SE,146,0.0,1.0,92,0.00,,,0.00,meteohub,2013-06-18 01:57:00,
2013-06-17 22:02:00,73.9,71.4,29.77,SSE,153,0.0,1.0,92,0.00,,,0.00,meteohub,2013-06-18 02:02:00,
2013-06-17 22:07:00,73.9,71.4,29.77,SSE,149,0.0,2.0,92,0.00,,,0.00,meteohub,2013-06-18 02:07:00,
2013-06-17 22:12:00,73.9,71.4,29.78,SSE,149,0.0,2.0,92,0.00,,,0.00,meteohub,2013-06-18 02:12:00,
2013-06-17 22:17:00,73.9,71.4,29.78,SSE,149,0.0,2.0,92,0.00,,,0.00,meteohub,2013-06-18 02:17:00,
2013-06-17 22:22:00,73.9,71.8,29.79,SSE,167,0.0,1.0,93,0.00,,,0.00,meteohub,2013-06-18 02:22:00,
2013-06-17 22:27:00,73.9,71.1,29.79,SW,221,6.0,6.0,91,0.00,,,0.00,meteohub,2013-06-18 02:27:00,
2013-06-17 22:32:00,74.8,70.0,29.79,SW,220,4.0,6.0,85,0.00,,,0.00,meteohub,2013-06-18 02:32:00,
2013-06-17 22:37:00,75.6,69.6,29.79,SW,233,6.0,7.0,82,0.00,,,0.00,meteohub,2013-06-18 02:37:00,
2013-06-17 22:42:00,75.7,68.7,29.79,NNW,329,3.0,8.0,79,0.00,,,0.00,meteohub,2013-06-18 02:42:00,
2013-06-17 22:47:00,75.7,66.9,29.80,West,260,2.0,9.0,74,0.00,,,0.00,meteohub,2013-06-18 02:47:00,
2013-06-17 22:52:00,75.6,67.1,29.79,WNW,287,1.0,10.0,75,0.00,,,0.00,meteohub,2013-06-18 02:52:00,
2013-06-17 23:02:00,74.8,65.1,29.80,West,262,3.0,13.0,72,0.00,,,0.00,meteohub,2013-06-18 03:02:00,
2013-06-17 23:07:00,74.7,65.1,29.80,WNW,285,3.0,11.0,72,0.00,,,0.00,meteohub,2013-06-18 03:07:00,
2013-06-17 23:12:00,74.3,64.8,29.79,WSW,253,9.0,11.0,72,0.00,,,0.00,meteohub,2013-06-18 03:12:00,
2013-06-17 23:17:00,73.9,64.4,29.80,WNW,285,2.0,19.0,72,0.00,,,0.00,meteohub,2013-06-18 03:17:00,
2013-06-17 23:22:00,73.8,64.2,29.81,NW,321,0.0,19.0,72,0.00,,,0.00,meteohub,2013-06-18 03:22:00,
2013-06-17 23:27:00,73.6,64.4,29.81,WNW,303,1.0,19.0,73,0.00,,,0.00,meteohub,2013-06-18 03:27:00,
2013-06-17 23:32:00,73.2,64.0,29.80,WSW,250,5.0,14.0,73,0.00,,,0.00,meteohub,2013-06-18 03:32:00,
2013-06-17 23:37:00,72.9,64.0,29.80,NW,313,4.0,10.0,74,0.00,,,0.00,meteohub,2013-06-18 03:37:00,
2013-06-17 23:42:00,72.3,64.8,29.81,NW,314,5.0,10.0,77,0.00,,,0.00,meteohub,2013-06-18 03:42:00,
2013-06-17 23:47:00,72.1,64.9,29.82,NNW,342,3.0,10.0,78,0.00,,,0.00,meteohub,2013-06-18 03:47:00,
2013-06-17 23:52:00,72.0,64.8,29.82,North,353,4.0,8.0,78,0.00,,,0.00,meteohub,2013-06-18 03:52:00,
2013-06-17 23:57:00,71.8,64.6,29.81,West,277,0.0,7.0,78,0.00,,,0.00,meteohub,2013-06-18 03:57:00,